Right Now

Temperature THW Index 116.58°

94.39° 0.43

Humidity

73.64% 0.21

Dew Point

86.45° 0.34

Pressure

1017.23mb 0.31

Wind

7.01mph 1.69 S

Rain

0"

Last 24 Hours

Filter Columns:
Timestamp Temp Ground Temp Est. Temp THW Index Wet Bulb Humidity Dew Point Pressure Wind Speed Wind Gust Lightning Rainfall
375395 6/22/2024 11:10am 94.39° F --° F 94.39° F 116.58° F 85.69° F 73.64% 86.45° F 1017.23mb 7.01mph S 15.08mph 0 0.000"
375394 6/22/2024 11:05am 94.60° F --° F 94.60° F 111.03° F 84.86° F 68.35% 84.77° F 1017.32mb 7.91mph S 14.41mph 0 0.000"
375393 6/22/2024 11:00am 95.23° F --° F 95.23° F 117.28° F 85.40° F 68.17% 85.30° F 1017.35mb 4.00mph S 11.65mph 0 0.000"
375392 6/22/2024 10:55am 95.76° F --° F 95.76° F 114.49° F 85.72° F 67.45% 85.53° F 1017.37mb 7.68mph S 15.08mph 0 0.000"
375391 6/22/2024 10:50am 94.91° F --° F 94.91° F 120.34° F 86.20° F 73.73% 86.98° F 1017.47mb 5.49mph S 11.65mph 0 0.000"
375390 6/22/2024 10:45am 93.69° F --° F 93.69° F 116.15° F 84.95° F 73.20% 85.63° F 1017.48mb 4.51mph S 8.92mph 0 0.000"
375389 6/22/2024 10:40am 92.73° F --° F 92.73° F 107.87° F 83.70° F 71.34% 84.07° F 1017.54mb 7.38mph S 12.34mph 0 0.000"
375388 6/22/2024 10:35am 93.42° F --° F 93.42° F 115.25° F 84.65° F 72.94% 85.28° F 1017.64mb 4.18mph S 15.08mph 0 0.000"
375387 6/22/2024 10:30am 93.92° F --° F 93.92° F 119.15° F 85.03° F 72.40% 85.57° F 1017.65mb 1.77mph NNW 5.49mph 0 0.000"
375386 6/22/2024 10:25am 94.84° F --° F 94.84° F 118.02° F 85.76° F 71.84% 86.25° F 1017.64mb 5.52mph S 10.30mph 0 0.000"
375385 6/22/2024 10:19am 94.21° F --° F 94.21° F 117.93° F 85.93° F 75.80% 87.01° F 1017.64mb 7.22mph S 12.34mph 0 0.000"
375384 6/22/2024 10:14am 92.68° F --° F 92.68° F 124.00° F 86.03° F 84.78% 88.39° F 1017.65mb 4.46mph S 12.34mph 0 0.000"
375383 6/22/2024 10:09am 91.49° F --° F 91.49° F 120.95° F 85.11° F 86.24% 87.67° F 1017.71mb 3.75mph NW 13.03mph 0 0.000"
375382 6/22/2024 10:04am 91.69° F --° F 91.69° F 116.32° F 84.54° F 81.64% 86.47° F 1017.60mb 4.69mph S 12.34mph 0 0.000"
375381 6/22/2024 9:59am 92.07° F --° F 92.07° F 120.56° F 85.12° F 82.85% 87.21° F 1017.58mb 3.31mph S 8.92mph 0 0.000"
375380 6/22/2024 9:54am 92.46° F --° F 92.46° F 113.84° F 84.88° F 79.24% 86.46° F 1017.63mb 7.75mph S 12.34mph 0 0.000"
375379 6/22/2024 9:49am 92.53° F --° F 92.53° F 118.63° F 85.47° F 82.17% 87.45° F 1017.64mb 6.30mph S 13.03mph 0 0.000"
375378 6/22/2024 9:44am 91.85° F --° F 91.85° F 120.91° F 85.33° F 85.49% 87.80° F 1017.69mb 4.57mph S 7.54mph 0 0.000"
375377 6/22/2024 9:39am 90.66° F --° F 90.66° F 122.73° F 85.08° F 91.52% 88.37° F 1017.68mb 3.43mph NW 8.23mph 0 0.000"
375376 6/22/2024 9:34am 90.18° F --° F 90.18° F 113.12° F 84.25° F 89.09% 87.21° F 1017.75mb 8.16mph S 17.15mph 0 0.000"
375375 6/22/2024 9:29am 90.57° F --° F 90.57° F 125.49° F 85.37° F 94.00% 88.97° F 1017.80mb 2.76mph S 8.23mph 0 0.000"
375374 6/22/2024 9:24am 91.13° F --° F 91.13° F 128.35° F 85.97° F 94.37% 89.63° F 1017.77mb 3.08mph NW 8.23mph 0 0.000"
375373 6/22/2024 9:18am 91.24° F --° F 91.24° F 126.49° F 86.08° F 94.36% 89.73° F 1017.87mb 5.33mph S 10.30mph 0 0.000"
375372 6/22/2024 9:13am 90.21° F --° F 90.21° F 126.91° F 85.65° F 98.70% 89.87° F 1017.83mb 4.21mph S 8.92mph 0 0.000"
375371 6/22/2024 9:08am 88.81° F --° F 88.81° F 117.41° F 84.41° F 100.00% 88.81° F 1017.74mb 7.40mph S 11.65mph 0 0.000"
375370 6/22/2024 9:03am 87.48° F --° F 87.48° F 115.49° F 83.07° F 100.00% 87.48° F 1018.01mb 2.92mph S 9.61mph 0 0.000"
375369 6/22/2024 8:58am 87.33° F --° F 87.33° F 109.98° F 82.93° F 100.00% 87.33° F 1017.97mb 7.38mph S 15.77mph 0 0.000"
375368 6/22/2024 8:53am 87.40° F --° F 87.40° F 111.78° F 83.00° F 100.00% 87.40° F 1018.02mb 6.02mph S 9.61mph 0 0.000"
375367 6/22/2024 8:48am 87.67° F --° F 87.67° F 116.24° F 83.27° F 100.00% 87.67° F 1018.15mb 3.10mph N 9.61mph 0 0.000"
375366 6/22/2024 8:43am 88.09° F --° F 88.09° F 118.97° F 83.69° F 100.00% 88.09° F 1018.18mb 2.51mph NNW 4.11mph 0 0.000"
375365 6/22/2024 8:38am 87.30° F --° F 87.30° F 114.63° F 82.89° F 100.00% 87.30° F 1018.15mb 2.90mph NNW 5.49mph 0 0.000"
375364 6/22/2024 8:33am 85.96° F --° F 85.96° F 109.07° F 81.55° F 100.00% 85.96° F 1018.17mb 2.14mph NNW 3.43mph 0 0.000"
375363 6/22/2024 8:28am 85.50° F --° F 85.50° F 106.81° F 81.08° F 100.00% 85.50° F 1018.20mb 2.28mph N 5.49mph 0 0.000"
375362 6/22/2024 8:23am 85.48° F --° F 85.48° F 102.46° F 81.06° F 100.00% 85.48° F 1018.18mb 6.25mph S 11.65mph 0 0.000"
375361 6/22/2024 8:18am 85.75° F --° F 85.75° F 108.16° F 81.33° F 100.00% 85.75° F 1018.20mb 2.09mph N 10.96mph 0 0.000"
375360 6/22/2024 8:13am 85.98° F --° F 85.98° F 109.66° F 81.57° F 100.00% 85.98° F 1018.19mb 1.68mph N 4.80mph 0 0.000"
375359 6/22/2024 8:07am 86.29° F --° F 86.29° F 111.72° F 81.88° F 100.00% 86.29° F 1018.19mb 1.10mph NNW 4.80mph 0 0.000"
375358 6/22/2024 8:02am 85.08° F --° F 85.08° F 105.83° F 80.66° F 100.00% 85.08° F 1018.16mb 1.43mph NNW 4.11mph 0 0.000"
375357 6/22/2024 7:57am 83.07° F --° F 83.07° F 96.87° F 78.63° F 100.00% 83.07° F 1018.15mb 1.79mph N 3.43mph 0 0.000"
375356 6/22/2024 7:52am 82.22° F --° F 82.22° F 93.10° F 77.78° F 100.00% 82.22° F 1018.10mb 2.14mph N 4.80mph 0 0.000"
375355 6/22/2024 7:47am 81.93° F --° F 81.93° F 91.56° F 77.49° F 100.00% 81.93° F 1017.99mb 2.53mph NNW 5.49mph 0 0.000"
375354 6/22/2024 7:42am 81.75° F --° F 81.75° F 92.05° F 77.31° F 100.00% 81.75° F 1017.96mb 1.43mph N 2.74mph 0 0.000"
375353 6/22/2024 7:37am 81.54° F --° F 81.54° F 90.49° F 77.09° F 100.00% 81.54° F 1017.82mb 2.14mph N 4.11mph 0 0.000"
375352 6/22/2024 7:32am 81.39° F --° F 81.39° F 92.22° F 76.94° F 100.00% 81.39° F 1017.84mb 0.00mph -- 0.69mph 0 0.000"
375351 6/22/2024 7:27am 81.46° F --° F 81.46° F 92.01° F 77.02° F 100.00% 81.46° F 1017.77mb 0.44mph N 3.43mph 0 0.000"
375350 6/22/2024 7:22am 81.81° F --° F 81.81° F 93.81° F 77.36° F 100.00% 81.81° F 1017.77mb 0.00mph -- 0.00mph 0 0.000"
375349 6/22/2024 7:17am 82.17° F --° F 82.17° F 95.20° F 77.72° F 100.00% 82.17° F 1017.91mb 0.00mph -- 0.00mph 0 0.000"
375348 6/22/2024 7:12am 80.55° F --° F 80.55° F 89.01° F 76.09° F 100.00% 80.55° F 1017.71mb 0.11mph N 1.38mph 0 0.000"
375347 6/22/2024 7:07am 78.71° F --° F 78.71° F 82.85° F 74.24° F 100.00% 78.71° F 1017.76mb 0.00mph -- 0.00mph 0 0.000"
375346 6/22/2024 7:02am 78.75° F --° F 78.75° F 82.98° F 74.28° F 100.00% 78.75° F 1017.74mb 0.00mph -- 0.00mph 0 0.000"
375345 6/22/2024 6:57am 78.84° F --° F 78.84° F 83.28° F 74.37° F 100.00% 78.84° F 1017.62mb 0.00mph -- 0.00mph 0 0.000"
375344 6/22/2024 6:52am 78.98° F --° F 78.98° F 83.73° F 74.52° F 100.00% 78.98° F 1017.50mb 0.00mph -- 0.00mph 0 0.000"
375343 6/22/2024 6:47am 79.16° F --° F 79.16° F 84.33° F 74.70° F 100.00% 79.16° F 1017.50mb 0.00mph -- 0.00mph 0 0.000"
375342 6/22/2024 6:42am 79.47° F --° F 79.47° F 85.37° F 75.00° F 100.00% 79.47° F 1017.56mb 0.00mph -- 0.00mph 0 0.000"
375341 6/22/2024 6:37am 79.86° F --° F 79.86° F 86.70° F 75.40° F 100.00% 79.86° F 1017.47mb 0.00mph -- 0.00mph 0 0.000"
375340 6/22/2024 6:31am 80.40° F --° F 80.40° F 88.60° F 75.95° F 100.00% 80.40° F 1017.41mb 0.00mph -- 0.00mph 0 0.000"
375339 6/22/2024 6:26am 80.13° F --° F 80.13° F 87.64° F 75.68° F 100.00% 80.13° F 1017.45mb 0.00mph -- 0.00mph 0 0.000"
375338 6/22/2024 6:21am 78.80° F --° F 78.80° F 83.15° F 74.33° F 100.00% 78.80° F 1017.35mb 0.00mph -- 0.00mph 0 0.000"
375337 6/22/2024 6:16am 78.51° F --° F 78.51° F 82.21° F 74.04° F 100.00% 78.51° F 1017.24mb 0.00mph -- 0.00mph 0 0.000"
375336 6/22/2024 6:11am 78.76° F --° F 78.76° F 83.02° F 74.30° F 100.00% 78.76° F 1017.22mb 0.00mph -- 0.00mph 0 0.000"
375335 6/22/2024 6:06am 79.07° F --° F 79.07° F 84.03° F 74.61° F 100.00% 79.07° F 1017.20mb 0.00mph -- 0.00mph 0 0.000"
375334 6/22/2024 6:01am 79.43° F --° F 79.43° F 85.23° F 74.97° F 100.00% 79.43° F 1017.20mb 0.00mph -- 0.00mph 0 0.000"
375333 6/22/2024 5:56am 79.86° F --° F 79.86° F 86.70° F 75.40° F 100.00% 79.86° F 1017.25mb 0.00mph -- 0.00mph 0 0.000"
375332 6/22/2024 5:51am 80.38° F --° F 80.38° F 88.30° F 75.93° F 100.00% 80.38° F 1017.31mb 0.21mph N 2.74mph 0 0.000"
375331 6/22/2024 5:46am 80.33° F --° F 80.33° F 85.59° F 75.88° F 100.00% 80.33° F 1017.18mb 2.57mph NNW 4.11mph 0 0.000"
375330 6/22/2024 5:41am 79.23° F --° F 79.23° F 83.88° F 74.77° F 100.00% 79.23° F 1017.20mb 0.64mph NNW 2.74mph 0 0.000"
375329 6/22/2024 5:36am 78.96° F --° F 78.96° F 83.67° F 74.50° F 100.00% 78.96° F 1017.26mb 0.00mph -- 0.00mph 0 0.000"
375328 6/22/2024 5:31am 79.27° F --° F 79.27° F 84.70° F 74.81° F 100.00% 79.27° F 1017.30mb 0.00mph -- 0.00mph 0 0.000"
375327 6/22/2024 5:26am 79.65° F --° F 79.65° F 85.98° F 75.19° F 100.00% 79.65° F 1017.16mb 0.00mph -- 0.00mph 0 0.000"
375326 6/22/2024 5:21am 80.06° F --° F 80.06° F 87.40° F 75.60° F 100.00% 80.06° F 1017.13mb 0.00mph -- 0.00mph 0 0.000"
375325 6/22/2024 5:16am 80.64° F --° F 80.64° F 89.46° F 76.18° F 100.00% 80.64° F 1017.18mb 0.00mph -- 0.00mph 0 0.000"
375324 6/22/2024 5:11am 80.35° F --° F 80.35° F 88.30° F 75.89° F 100.00% 80.35° F 1017.19mb 0.11mph N 1.38mph 0 0.000"
375323 6/22/2024 5:06am 79.12° F --° F 79.12° F 84.18° F 74.66° F 100.00% 79.12° F 1017.11mb 0.02mph N 0.69mph 0 0.000"
375322 6/22/2024 5:01am 78.67° F --° F 78.67° F 82.72° F 74.21° F 100.00% 78.67° F 1017.07mb 0.00mph -- 0.00mph 0 0.000"
375321 6/22/2024 4:55am 78.82° F --° F 78.82° F 83.21° F 74.35° F 100.00% 78.82° F 1017.09mb 0.00mph -- 0.00mph 0 0.000"
375320 6/22/2024 4:50am 79.03° F --° F 79.03° F 83.90° F 74.57° F 100.00% 79.03° F 1017.05mb 0.00mph -- 0.00mph 0 0.000"
375319 6/22/2024 4:45am 79.25° F --° F 79.25° F 84.63° F 74.79° F 100.00% 79.25° F 1016.92mb 0.00mph -- 0.00mph 0 0.000"
375318 6/22/2024 4:40am 79.56° F --° F 79.56° F 85.67° F 75.10° F 100.00% 79.56° F 1016.89mb 0.00mph -- 0.00mph 0 0.000"
375317 6/22/2024 4:35am 79.83° F --° F 79.83° F 86.60° F 75.37° F 100.00% 79.83° F 1016.92mb 0.00mph -- 0.00mph 0 0.000"
375316 6/22/2024 4:30am 80.20° F --° F 80.20° F 87.89° F 75.75° F 100.00% 80.20° F 1016.95mb 0.00mph -- 0.00mph 0 0.000"
375315 6/22/2024 4:25am 80.69° F --° F 80.69° F 89.64° F 76.24° F 100.00% 80.69° F 1016.90mb 0.00mph -- 0.00mph 0 0.000"
375314 6/22/2024 4:20am 81.27° F --° F 81.27° F 91.08° F 76.82° F 100.00% 81.27° F 1016.98mb 0.64mph NNW 2.74mph 0 0.000"
375313 6/22/2024 4:15am 80.92° F --° F 80.92° F 89.73° F 76.47° F 100.00% 80.92° F 1016.99mb 0.69mph NNW 2.74mph 0 0.000"
375312 6/22/2024 4:10am 79.79° F --° F 79.79° F 86.44° F 75.33° F 100.00% 79.79° F 1016.91mb 0.02mph N 0.69mph 0 0.000"
375311 6/22/2024 4:05am 79.36° F --° F 79.36° F 85.00° F 74.90° F 100.00% 79.36° F 1016.94mb 0.00mph -- 0.00mph 0 0.000"
375310 6/22/2024 4:00am 79.56° F --° F 79.56° F 85.67° F 75.10° F 100.00% 79.56° F 1017.00mb 0.00mph -- 0.00mph 0 0.000"
375309 6/22/2024 3:55am 79.70° F --° F 79.70° F 86.15° F 75.24° F 100.00% 79.70° F 1016.92mb 0.00mph -- 0.00mph 0 0.000"
375308 6/22/2024 3:50am 79.93° F --° F 79.93° F 86.94° F 75.48° F 100.00% 79.93° F 1016.91mb 0.00mph -- 0.00mph 0 0.000"
375307 6/22/2024 3:45am 80.24° F --° F 80.24° F 88.03° F 75.78° F 100.00% 80.24° F 1016.90mb 0.00mph -- 0.00mph 0 0.000"
375306 6/22/2024 3:40am 80.55° F --° F 80.55° F 89.13° F 76.09° F 100.00% 80.55° F 1016.85mb 0.00mph -- 0.00mph 0 0.000"
375305 6/22/2024 3:35am 80.94° F --° F 80.94° F 90.55° F 76.49° F 100.00% 80.94° F 1016.87mb 0.00mph -- 0.00mph 0 0.000"
375304 6/22/2024 3:30am 81.46° F --° F 81.46° F 92.48° F 77.02° F 100.00% 81.46° F 1016.94mb 0.00mph -- 0.00mph 0 0.000"
375303 6/22/2024 3:25am 81.90° F --° F 81.90° F 92.08° F 77.45° F 100.00% 81.90° F 1016.88mb 1.93mph NNW 3.43mph 0 0.000"
375302 6/22/2024 3:19am 81.00° F --° F 81.00° F 88.62° F 76.55° F 100.00% 81.00° F 1017.04mb 2.00mph NNW 3.43mph 0 0.000"
375301 6/22/2024 3:14am 80.08° F --° F 80.08° F 87.47° F 75.62° F 100.00% 80.08° F 1016.95mb 0.00mph -- 0.00mph 0 0.000"
375300 6/22/2024 3:09am 80.31° F --° F 80.31° F 88.28° F 75.86° F 100.00% 80.31° F 1017.02mb 0.00mph -- 0.00mph 0 0.000"
375299 6/22/2024 3:04am 80.64° F --° F 80.64° F 89.46° F 76.18° F 100.00% 80.64° F 1016.96mb 0.00mph -- 0.00mph 0 0.000"
375298 6/22/2024 2:59am 81.03° F --° F 81.03° F 90.88° F 76.58° F 100.00% 81.03° F 1016.98mb 0.00mph -- 0.00mph 0 0.000"
375297 6/22/2024 2:54am 81.50° F --° F 81.50° F 92.63° F 77.05° F 100.00% 81.50° F 1017.03mb 0.00mph -- 0.00mph 0 0.000"
375296 6/22/2024 2:49am 81.91° F --° F 81.91° F 94.17° F 77.47° F 100.00% 81.91° F 1017.10mb 0.02mph NNW 0.69mph 0 0.000"
375295 6/22/2024 2:44am 81.28° F --° F 81.28° F 91.75° F 76.84° F 100.00% 81.28° F 1017.11mb 0.05mph N 0.69mph 0 0.000"
375294 6/22/2024 2:39am 80.62° F --° F 80.62° F 89.38° F 76.17° F 100.00% 80.62° F 1017.09mb 0.00mph -- 0.00mph 0 0.000"
375293 6/22/2024 2:34am 80.96° F --° F 80.96° F 90.62° F 76.51° F 100.00% 80.96° F 1017.09mb 0.00mph -- 0.00mph 0 0.000"
375292 6/22/2024 2:29am 81.37° F --° F 81.37° F 92.14° F 76.93° F 100.00% 81.37° F 1017.14mb 0.00mph -- 0.00mph 0 0.000"
375291 6/22/2024 2:24am 81.86° F --° F 81.86° F 94.00° F 77.42° F 100.00% 81.86° F 1017.17mb 0.00mph -- 0.00mph 0 0.000"
375290 6/22/2024 2:19am 82.33° F --° F 82.33° F 95.65° F 77.89° F 100.00% 82.33° F 1017.16mb 0.16mph N 1.38mph 0 0.000"
375289 6/22/2024 2:14am 81.79° F --° F 81.79° F 93.43° F 77.34° F 100.00% 81.79° F 1017.34mb 0.28mph N 2.07mph 0 0.000"
375288 6/22/2024 2:09am 80.67° F --° F 80.67° F 89.56° F 76.22° F 100.00% 80.67° F 1017.36mb 0.00mph -- 0.69mph 0 0.000"
375287 6/22/2024 2:04am 80.58° F --° F 80.58° F 89.24° F 76.13° F 100.00% 80.58° F 1017.35mb 0.00mph -- 0.00mph 0 0.000"
375286 6/22/2024 1:59am 80.91° F --° F 80.91° F 90.44° F 76.46° F 100.00% 80.91° F 1017.42mb 0.00mph -- 0.00mph 0 0.000"
375285 6/22/2024 1:54am 81.23° F --° F 81.23° F 91.62° F 76.78° F 100.00% 81.23° F 1017.54mb 0.00mph -- 0.00mph 0 0.000"
375284 6/22/2024 1:49am 81.50° F --° F 81.50° F 92.63° F 77.05° F 100.00% 81.50° F 1017.60mb 0.00mph -- 0.00mph 0 0.000"
375283 6/22/2024 1:43am 81.86° F --° F 81.86° F 94.00° F 77.42° F 100.00% 81.86° F 1017.68mb 0.00mph -- 0.00mph 0 0.000"
375282 6/22/2024 1:38am 82.29° F --° F 82.29° F 95.67° F 77.85° F 100.00% 82.29° F 1017.57mb 0.00mph -- 0.00mph 0 0.000"
375281 6/22/2024 1:33am 82.80° F --° F 82.80° F 97.62° F 78.36° F 100.00% 82.80° F 1017.61mb 0.07mph N 1.38mph 0 0.000"
375280 6/22/2024 1:28am 82.98° F --° F 82.98° F 96.58° F 78.54° F 100.00% 82.98° F 1017.66mb 1.72mph NNW 2.74mph 0 0.000"
375279 6/22/2024 1:23am 82.35° F --° F 82.35° F 94.52° F 77.91° F 100.00% 82.35° F 1017.62mb 1.29mph NNW 2.74mph 0 0.000"
375278 6/22/2024 1:18am 82.15° F --° F 82.15° F 95.12° F 77.71° F 100.00% 82.15° F 1017.67mb 0.00mph -- 0.00mph 0 0.000"
375277 6/22/2024 1:13am 82.58° F --° F 82.58° F 96.82° F 78.14° F 100.00% 82.58° F 1017.67mb 0.00mph -- 0.00mph 0 0.000"
375276 6/22/2024 1:08am 83.14° F --° F 83.14° F 99.07° F 78.70° F 100.00% 83.14° F 1017.67mb 0.00mph -- 0.00mph 0 0.000"
375275 6/22/2024 1:03am 83.73° F --° F 83.73° F 101.44° F 79.30° F 100.00% 83.73° F 1017.76mb 0.07mph N 1.38mph 0 0.000"
375274 6/22/2024 12:58am 83.62° F --° F 83.62° F 100.98° F 79.19° F 100.00% 83.62° F 1017.88mb 0.07mph N 0.69mph 0 0.000"
375273 6/22/2024 12:53am 82.94° F --° F 82.94° F 98.04° F 78.50° F 100.00% 82.94° F 1017.99mb 0.21mph N 2.74mph 0 0.000"
375272 6/22/2024 12:48am 82.63° F --° F 82.63° F 97.01° F 78.20° F 100.00% 82.63° F 1017.99mb 0.00mph -- 0.00mph 0 0.000"
375271 6/22/2024 12:43am 83.03° F --° F 83.03° F 98.63° F 78.59° F 100.00% 83.03° F 1017.93mb 0.00mph -- 0.00mph 0 0.000"
375270 6/22/2024 12:38am 83.50° F --° F 83.50° F 100.56° F 79.07° F 100.00% 83.50° F 1017.95mb 0.00mph -- 0.00mph 0 0.000"
375269 6/22/2024 12:33am 84.09° F --° F 84.09° F 103.04° F 79.66° F 100.00% 84.09° F 1017.98mb 0.00mph -- 0.00mph 0 0.000"
375268 6/22/2024 12:28am 84.49° F --° F 84.49° F 103.38° F 80.06° F 100.00% 84.49° F 1017.92mb 1.29mph NNW 3.43mph 0 0.000"
375267 6/22/2024 12:23am 84.07° F --° F 84.07° F 102.90° F 79.65° F 100.00% 84.07° F 1018.00mb 0.05mph N 0.69mph 0 0.000"
375266 6/22/2024 12:17am 83.41° F --° F 83.41° F 100.01° F 78.97° F 100.00% 83.41° F 1017.95mb 0.16mph N 2.07mph 0 0.000"
375265 6/22/2024 12:12am 83.75° F --° F 83.75° F 101.60° F 79.32° F 100.00% 83.75° F 1017.98mb 0.00mph -- 0.00mph 0 0.000"
375264 6/22/2024 12:07am 84.31° F --° F 84.31° F 103.99° F 79.88° F 100.00% 84.31° F 1017.95mb 0.00mph -- 0.00mph 0 0.000"
375263 6/22/2024 12:02am 84.87° F --° F 84.87° F 106.13° F 80.44° F 100.00% 84.87° F 1018.04mb 0.28mph N 2.07mph 0 0.000"
375262 6/21/2024 11:57pm 84.79° F --° F 84.79° F 104.26° F 80.37° F 100.00% 84.79° F 1018.07mb 1.70mph NNW 2.74mph 0 0.000"
375261 6/21/2024 11:52pm 84.36° F --° F 84.36° F 102.65° F 79.94° F 100.00% 84.36° F 1018.22mb 1.45mph N 2.74mph 0 0.000"
375260 6/21/2024 11:47pm 83.79° F --° F 83.79° F 101.77° F 79.36° F 100.00% 83.79° F 1018.17mb 0.00mph -- 0.69mph 0 0.000"
375259 6/21/2024 11:42pm 84.18° F --° F 84.18° F 103.43° F 79.75° F 100.00% 84.18° F 1018.21mb 0.00mph -- 0.00mph 0 0.000"
375258 6/21/2024 11:37pm 84.63° F --° F 84.63° F 105.38° F 80.21° F 100.00% 84.63° F 1018.14mb 0.00mph -- 0.00mph 0 0.000"
375257 6/21/2024 11:32pm 85.23° F --° F 85.23° F 108.04° F 80.81° F 100.00% 85.23° F 1018.06mb 0.00mph -- 0.00mph 0 0.000"
375256 6/21/2024 11:27pm 85.71° F --° F 85.71° F 109.97° F 81.30° F 100.00% 85.71° F 1018.11mb 0.23mph N 2.07mph 0 0.000"
375255 6/21/2024 11:22pm 85.50° F --° F 85.50° F 109.01° F 81.08° F 100.00% 85.50° F 1018.14mb 0.23mph N 2.07mph 0 0.000"
375254 6/21/2024 11:17pm 85.10° F --° F 85.10° F 106.35° F 80.68° F 100.00% 85.10° F 1018.17mb 1.03mph NNW 2.74mph 0 0.000"
375253 6/21/2024 11:12pm 85.01° F --° F 85.01° F 107.05° F 80.59° F 100.00% 85.01° F 1018.17mb 0.00mph -- 0.00mph 0 0.000"
375252 6/21/2024 11:07pm 85.57° F --° F 85.57° F 109.57° F 81.15° F 100.00% 85.57° F 1018.18mb 0.00mph -- 0.00mph 0 0.000"
375251 6/21/2024 11:01pm 86.23° F --° F 86.23° F 112.62° F 81.82° F 100.00% 86.23° F 1018.24mb 0.00mph -- 0.00mph 0 0.000"
375250 6/21/2024 10:56pm 86.68° F --° F 86.68° F 113.93° F 82.27° F 100.00% 86.68° F 1018.26mb 0.76mph N 2.74mph 0 0.000"
375249 6/21/2024 10:51pm 86.59° F --° F 86.59° F 114.02° F 82.18° F 100.00% 86.59° F 1018.15mb 0.28mph N 2.07mph 0 0.000"
375248 6/21/2024 10:46pm 86.05° F --° F 86.05° F 111.78° F 81.64° F 100.00% 86.05° F 1018.03mb 0.00mph -- 0.00mph 0 0.000"
375247 6/21/2024 10:41pm 85.69° F --° F 85.69° F 108.81° F 80.99° F 97.91% 85.16° F 1018.04mb 0.00mph -- 0.00mph 0 0.000"
375245 6/21/2024 10:36pm 86.18° F --° F 86.18° F 109.36° F 81.17° F 95.42% 85.00° F 1017.95mb 0.00mph -- 0.00mph 0 0.000"
375246 6/21/2024 10:31pm 86.83° F --° F 86.83° F 109.85° F 81.38° F 92.02% 84.73° F 1017.91mb 0.00mph -- 0.00mph 0 0.000"
375244 6/21/2024 10:26pm 87.53° F --° F 87.53° F 111.38° F 81.80° F 90.09% 84.89° F 1017.75mb 0.00mph -- 0.69mph 0 0.000"
375243 6/21/2024 10:21pm 87.73° F --° F 87.73° F 112.78° F 82.10° F 90.89% 85.31° F 1017.76mb 0.00mph -- 0.69mph 0 0.000"
375242 6/21/2024 10:16pm 87.33° F --° F 87.33° F 111.82° F 81.87° F 92.01% 85.22° F 1017.68mb 0.09mph NNW 1.38mph 0 0.000"
375241 6/21/2024 10:10pm 86.67° F --° F 86.67° F 110.10° F 81.42° F 93.72% 85.03° F 1017.67mb 0.21mph N 2.74mph 0 0.000"
375240 6/21/2024 10:05pm 86.92° F --° F 86.92° F 105.25° F 80.75° F 87.00% 83.42° F 1017.53mb 1.56mph N 3.43mph 0 0.000"
375239 6/21/2024 10:00pm 87.60° F --° F 87.60° F 105.46° F 81.09° F 84.71% 83.42° F 1017.54mb 2.32mph NNW 4.80mph 0 0.000"
375238 6/21/2024 9:55pm 88.43° F --° F 88.43° F 106.93° F 81.61° F 82.90% 83.69° F 1017.51mb 2.62mph NNW 6.85mph 0 0.000"
375237 6/21/2024 9:50pm 88.54° F --° F 88.54° F 109.96° F 81.80° F 83.49% 83.97° F 1017.44mb 0.57mph NNW 2.74mph 0 0.000"
375236 6/21/2024 9:45pm 88.25° F --° F 88.25° F 109.30° F 81.78° F 85.19% 84.19° F 1017.42mb 1.31mph N 3.43mph 0 0.000"
375235 6/21/2024 9:40pm 87.60° F --° F 87.60° F 106.51° F 81.51° F 87.68% 84.28° F 1017.37mb 3.22mph S 6.18mph 0 0.000"
375234 6/21/2024 9:35pm 87.85° F --° F 87.85° F 105.83° F 81.37° F 84.99% 83.74° F 1017.38mb 3.01mph S 6.85mph 0 0.000"
375233 6/21/2024 9:30pm 88.66° F --° F 88.66° F 107.44° F 81.86° F 83.08% 83.97° F 1017.39mb 3.06mph S 6.85mph 0 0.000"
375232 6/21/2024 9:25pm 89.28° F --° F 89.28° F 110.42° F 82.42° F 82.86% 84.50° F 1017.43mb 2.30mph NW 5.49mph 0 0.000"
375231 6/21/2024 9:20pm 88.86° F --° F 88.86° F 109.88° F 82.34° F 84.93% 84.71° F 1017.41mb 2.78mph S 5.49mph 0 0.000"
375230 6/21/2024 9:15pm 88.07° F --° F 88.07° F 109.23° F 82.17° F 89.06% 85.13° F 1017.30mb 3.36mph S 6.18mph 0 0.000"
375229 6/21/2024 9:10pm 88.18° F --° F 88.18° F 109.32° F 81.98° F 86.97% 84.64° F 1017.24mb 2.25mph S 5.49mph 0 0.000"
375228 6/21/2024 9:05pm 88.90° F --° F 88.90° F 108.86° F 82.46° F 85.54% 84.93° F 1017.21mb 4.32mph S 9.61mph 0 0.000"
375227 6/21/2024 8:59pm 89.62° F --° F 89.62° F 113.95° F 83.22° F 85.97% 85.76° F 1017.24mb 2.60mph S 4.80mph 0 0.000"
375226 6/21/2024 8:54pm 89.51° F --° F 89.51° F 111.97° F 83.29° F 87.09% 85.98° F 1017.18mb 4.90mph S 10.96mph 0 0.000"
375225 6/21/2024 8:49pm 89.22° F --° F 89.22° F 113.96° F 83.30° F 88.96% 86.23° F 1017.16mb 3.36mph S 6.18mph 0 0.000"
375224 6/21/2024 8:44pm 88.95° F --° F 88.95° F 109.24° F 82.54° F 85.74% 85.04° F 1017.09mb 4.30mph S 7.54mph 0 0.000"
375223 6/21/2024 8:39pm 89.74° F --° F 89.74° F 110.15° F 82.87° F 82.78% 84.92° F 1017.09mb 4.14mph S 8.23mph 0 0.000"
375222 6/21/2024 8:34pm 90.61° F --° F 90.61° F 111.16° F 83.41° F 80.99% 85.22° F 1016.93mb 4.94mph S 8.92mph 0 0.000"
375221 6/21/2024 8:29pm 90.55° F --° F 90.55° F 113.14° F 83.58° F 82.33% 85.57° F 1016.98mb 3.95mph S 7.54mph 0 0.000"
375220 6/21/2024 8:24pm 90.27° F --° F 90.27° F 112.61° F 83.44° F 83.32% 85.60° F 1016.99mb 4.21mph S 7.54mph 0 0.000"
375219 6/21/2024 8:19pm 89.91° F --° F 89.91° F 112.79° F 83.19° F 83.98% 85.45° F 1017.01mb 3.22mph S 7.54mph 0 0.000"
375218 6/21/2024 8:14pm 90.54° F --° F 90.54° F 112.11° F 82.77° F 77.69% 84.11° F 1016.90mb 1.24mph N 6.85mph 0 0.000"
375217 6/21/2024 8:09pm 91.38° F --° F 91.38° F 112.14° F 83.15° F 75.25% 84.12° F 1016.94mb 2.14mph N 6.18mph 0 0.000"
375216 6/21/2024 8:04pm 91.90° F --° F 91.90° F 111.90° F 83.54° F 74.59% 84.39° F 1016.91mb 3.56mph S 6.18mph 0 0.000"
375215 6/21/2024 7:58pm 91.96° F --° F 91.96° F 108.84° F 83.46° F 73.97% 84.24° F 1016.87mb 6.11mph S 10.96mph 0 0.000"
375214 6/21/2024 7:53pm 91.96° F --° F 91.96° F 109.70° F 83.43° F 73.80% 84.19° F 1016.85mb 5.17mph S 9.61mph 0 0.000"
375213 6/21/2024 7:48pm 91.80° F --° F 91.80° F 108.72° F 83.30° F 73.95% 84.08° F 1016.93mb 5.68mph S 8.23mph 0 0.000"
375212 6/21/2024 7:43pm 91.85° F --° F 91.85° F 107.62° F 82.57° F 69.77% 82.68° F 1016.89mb 3.63mph S 7.54mph 0 0.000"
375211 6/21/2024 7:38pm 92.79° F --° F 92.79° F 104.93° F 82.80° F 66.54% 82.40° F 1016.81mb 6.48mph S 13.03mph 0 0.000"
375210 6/21/2024 7:33pm 93.04° F --° F 93.04° F 104.56° F 82.90° F 65.99% 82.43° F 1016.70mb 7.13mph S 13.72mph 0 0.000"
375209 6/21/2024 7:28pm 92.86° F --° F 92.86° F 104.42° F 82.66° F 65.60% 82.11° F 1016.70mb 6.44mph S 11.65mph 0 0.000"
375208 6/21/2024 7:23pm 92.66° F --° F 92.66° F 103.76° F 82.25° F 64.42% 81.48° F 1016.64mb 5.61mph S 8.92mph 0 0.000"
375207 6/21/2024 7:18pm 93.49° F --° F 93.49° F 102.34° F 82.00° F 59.97% 80.49° F 1016.61mb 5.93mph S 8.92mph 0 0.000"
375206 6/21/2024 7:13pm 94.41° F --° F 94.41° F 103.31° F 82.55° F 58.76% 80.84° F 1016.62mb 6.55mph S 10.96mph 0 0.000"
375205 6/21/2024 7:08pm 94.73° F --° F 94.73° F 104.78° F 82.79° F 58.54% 81.05° F 1016.55mb 5.86mph S 9.61mph 0 0.000"
375204 6/21/2024 7:02pm 94.87° F --° F 94.87° F 103.49° F 82.59° F 57.21% 80.61° F 1016.54mb 6.41mph S 13.03mph 0 0.000"
375203 6/21/2024 6:57pm 94.93° F --° F 94.93° F 103.54° F 82.52° F 56.71% 80.45° F 1016.60mb 6.14mph S 13.72mph 0 0.000"
375202 6/21/2024 6:52pm 94.89° F --° F 94.89° F 103.17° F 82.40° F 56.34% 80.26° F 1016.63mb 6.11mph S 10.96mph 0 0.000"
375201 6/21/2024 6:47pm 95.23° F --° F 95.23° F 100.72° F 82.13° F 54.07% 79.57° F 1016.60mb 7.56mph S 13.03mph 0 0.000"
375200 6/21/2024 6:42pm 95.99° F --° F 95.99° F 103.18° F 82.48° F 52.92% 79.73° F 1016.66mb 6.28mph S 13.72mph 0 0.000"
375199 6/21/2024 6:37pm 96.30° F --° F 96.30° F 102.65° F 82.48° F 51.99% 79.58° F 1016.71mb 6.83mph S 17.15mph 0 0.000"
375198 6/21/2024 6:32pm 96.55° F --° F 96.55° F 102.85° F 82.55° F 51.44% 79.55° F 1016.71mb 6.83mph S 14.41mph 0 0.000"
375197 6/21/2024 6:27pm 96.76° F --° F 96.76° F 101.74° F 82.82° F 51.75% 79.89° F 1016.75mb 8.62mph S 17.15mph 0 0.000"
375196 6/21/2024 6:22pm 96.91° F --° F 96.91° F 107.29° F 83.11° F 52.27% 80.26° F 1016.69mb 4.23mph S 12.34mph 0 0.000"
375195 6/21/2024 6:17pm 96.40° F --° F 96.40° F 103.62° F 82.64° F 52.16% 79.75° F 1016.81mb 6.30mph S 13.72mph 0 0.000"
375194 6/21/2024 6:11pm 96.28° F --° F 96.28° F 98.34° F 81.87° F 49.86% 78.55° F 1016.80mb 9.22mph S 17.15mph 0 0.000"
375193 6/21/2024 6:06pm 97.11° F --° F 97.11° F 100.42° F 81.64° F 46.61% 77.67° F 1016.74mb 6.83mph S 10.96mph 0 0.000"
375192 6/21/2024 6:01pm 97.95° F --° F 97.95° F 99.17° F 81.73° F 44.61% 77.36° F 1016.68mb 8.41mph S 15.77mph 0 0.000"
375191 6/21/2024 5:56pm 98.01° F --° F 98.01° F 100.38° F 81.55° F 43.96% 77.06° F 1016.73mb 6.94mph S 13.03mph 0 0.000"
375190 6/21/2024 5:51pm 98.10° F --° F 98.10° F 99.50° F 81.48° F 43.50% 76.89° F 1016.68mb 7.63mph S 11.65mph 0 0.000"
375189 6/21/2024 5:46pm 98.29° F --° F 98.29° F 97.80° F 80.92° F 41.35% 75.85° F 1016.70mb 8.11mph S 15.77mph 0 0.000"
375188 6/21/2024 5:41pm 98.35° F --° F 98.35° F 100.63° F 81.29° F 42.27% 76.43° F 1016.75mb 6.23mph S 12.34mph 0 0.000"
375187 6/21/2024 5:36pm 98.37° F --° F 98.37° F 98.22° F 81.08° F 41.65% 76.09° F 1016.71mb 8.09mph S 16.46mph 0 0.000"
375186 6/21/2024 5:31pm 98.35° F --° F 98.35° F 101.16° F 81.41° F 42.64% 76.63° F 1016.70mb 6.00mph S 15.77mph 0 0.000"
375185 6/21/2024 5:26pm 98.35° F --° F 98.35° F 102.81° F 81.47° F 42.80% 76.72° F 1016.70mb 4.57mph S 9.61mph 0 0.000"
375184 6/21/2024 5:21pm 98.31° F --° F 98.31° F 97.81° F 81.23° F 42.17% 76.33° F 1016.75mb 8.71mph S 14.41mph 0 0.000"
375183 6/21/2024 5:15pm 98.13° F --° F 98.13° F 96.89° F 81.00° F 41.98% 76.07° F 1016.74mb 9.06mph S 19.88mph 0 0.000"
375182 6/21/2024 5:10pm 98.11° F --° F 98.11° F 97.61° F 81.28° F 42.83% 76.53° F 1016.82mb 8.94mph S 15.77mph 0 0.000"
375181 6/21/2024 5:05pm 98.11° F --° F 98.11° F 96.07° F 81.57° F 43.73% 77.03° F 1016.83mb 11.01mph S 23.33mph 0 0.000"
375180 6/21/2024 5:00pm 97.66° F --° F 97.66° F 100.44° F 82.16° F 46.76% 78.24° F 1017.01mb 8.16mph S 13.03mph 0 0.000"
375179 6/21/2024 4:55pm 96.76° F --° F 96.76° F 94.15° F 81.35° F 46.62% 77.36° F 1017.08mb 11.91mph S 22.64mph 0 0.000"
375178 6/21/2024 4:50pm 96.87° F --° F 96.87° F 98.34° F 82.55° F 50.39% 79.34° F 1017.18mb 11.01mph S 21.26mph 0 0.000"
375177 6/21/2024 4:45pm 98.08° F --° F 98.08° F 104.97° F 83.41° F 49.81% 80.14° F 1017.13mb 7.33mph S 15.08mph 0 0.000"
375176 6/21/2024 4:40pm 98.40° F --° F 98.40° F 103.91° F 83.94° F 50.64% 80.83° F 1017.19mb 9.82mph S 16.46mph 0 0.000"
375175 6/21/2024 4:35pm 98.28° F --° F 98.28° F 99.71° F 83.93° F 51.01% 80.90° F 1017.25mb 13.75mph S 22.64mph 0 0.000"
375174 6/21/2024 4:30pm 98.17° F --° F 98.17° F 98.51° F 83.68° F 50.43% 80.53° F 1017.33mb 14.09mph S 25.38mph 0 0.000"
375173 6/21/2024 4:24pm 97.97° F --° F 97.97° F 102.56° F 83.70° F 51.15% 80.69° F 1017.43mb 10.41mph S 22.64mph 0 0.000"
375172 6/21/2024 4:19pm 97.74° F --° F 97.74° F 101.75° F 83.69° F 51.85% 80.82° F 1017.56mb 11.17mph S 18.53mph 0 0.000"
375171 6/21/2024 4:14pm 97.38° F --° F 97.38° F 103.19° F 84.40° F 55.64% 82.23° F 1017.62mb 12.14mph S 22.64mph 0 0.000"
375170 6/21/2024 4:09pm 96.69° F --° F 96.69° F 102.23° F 83.88° F 55.96% 81.74° F 1017.59mb 11.42mph S 19.88mph 0 0.000"
375169 6/21/2024 4:04pm 97.07° F --° F 97.07° F 99.45° F 83.14° F 51.94% 80.25° F 1017.57mb 11.68mph S 23.33mph 0 0.000"
375168 6/21/2024 3:59pm 98.78° F --° F 98.78° F 102.19° F 84.41° F 51.16% 81.43° F 1017.70mb 12.87mph S 22.64mph 0 0.000"
375167 6/21/2024 3:54pm 99.18° F --° F 99.18° F 102.11° F 84.64° F 50.77% 81.60° F 1017.72mb 13.65mph S 19.88mph 0 0.000"
375166 6/21/2024 3:49pm 99.16° F --° F 99.16° F 109.17° F 85.73° F 54.69% 83.42° F 1017.78mb 10.71mph S 20.57mph 0 0.000"
375165 6/21/2024 3:44pm 98.78° F --° F 98.78° F 113.79° F 86.05° F 57.18% 84.18° F 1017.87mb 7.75mph S 15.08mph 0 0.000"
375164 6/21/2024 3:39pm 98.83° F --° F 98.83° F 105.72° F 85.16° F 53.68% 82.66° F 1017.86mb 12.02mph S 22.64mph 0 0.000"
375163 6/21/2024 3:33pm 99.37° F --° F 99.37° F 106.80° F 85.66° F 53.79% 83.20° F 1018.01mb 12.64mph S 24.69mph 0 0.000"
375162 6/21/2024 3:28pm 99.37° F --° F 99.37° F 105.99° F 85.97° F 54.86% 83.69° F 1018.01mb 14.46mph S 23.33mph 0 0.000"
375161 6/21/2024 3:23pm 99.25° F --° F 99.25° F 115.19° F 87.14° F 59.82% 85.75° F 1017.95mb 10.67mph S 19.88mph 0 0.000"
375160 6/21/2024 3:18pm 99.18° F --° F 99.18° F 108.07° F 86.58° F 57.91% 84.87° F 1018.00mb 15.06mph S 25.38mph 0 0.000"
375159 6/21/2024 3:13pm 99.18° F --° F 99.18° F 114.29° F 87.48° F 61.46% 86.37° F 1018.05mb 13.08mph S 23.33mph 0 0.000"
375158 6/21/2024 3:08pm 98.82° F --° F 98.82° F 119.16° F 87.54° F 63.06% 86.69° F 1017.95mb 9.10mph S 17.84mph 0 0.000"
375157 6/21/2024 3:03pm 98.87° F --° F 98.87° F 119.75° F 87.43° F 62.33% 86.44° F 1018.12mb 7.91mph S 23.33mph 0 0.000"
375156 6/21/2024 2:58pm 99.01° F --° F 99.01° F 123.99° F 88.30° F 65.54% 87.85° F 1018.27mb 8.11mph S 19.22mph 0 0.000"
375155 6/21/2024 2:53pm 98.46° F --° F 98.46° F 120.33° F 88.23° F 67.51% 88.09° F 1018.39mb 11.82mph S 22.64mph 0 0.000"
375154 6/21/2024 2:48pm 97.81° F --° F 97.81° F 117.63° F 87.15° F 65.36% 86.65° F 1018.51mb 9.59mph S 19.88mph 0 0.000"
375153 6/21/2024 2:42pm 96.98° F --° F 96.98° F 114.98° F 87.00° F 68.08% 86.91° F 1018.46mb 12.09mph S 26.07mph 0 0.000"
375152 6/21/2024 2:37pm 97.84° F --° F 97.84° F 118.59° F 87.12° F 65.07% 86.57° F 1018.59mb 8.48mph S 18.53mph 0 0.000"
375151 6/21/2024 2:32pm 98.76° F --° F 98.76° F 116.26° F 87.37° F 62.51% 86.41° F 1018.58mb 10.99mph S 17.84mph 0 0.000"
375150 6/21/2024 2:27pm 98.33° F --° F 98.33° F 118.35° F 87.40° F 64.31% 86.73° F 1018.70mb 9.56mph S 21.26mph 0 0.000"
375149 6/21/2024 2:22pm 98.62° F --° F 98.62° F 127.79° F 88.75° F 69.23% 88.88° F 1018.78mb 7.52mph S 21.95mph 0 0.000"
375148 6/21/2024 2:17pm 98.49° F --° F 98.49° F 118.94° F 88.20° F 67.23% 88.01° F 1018.61mb 12.90mph S 24.69mph 0 0.000"
375147 6/21/2024 2:12pm 98.51° F --° F 98.51° F 117.33° F 87.80° F 65.40% 87.32° F 1018.86mb 12.37mph S 26.07mph 0 0.000"
375146 6/21/2024 2:07pm 98.46° F --° F 98.46° F 129.89° F 89.55° F 73.78% 90.38° F 1018.83mb 10.62mph S 30.18mph 0 0.000"
375145 6/21/2024 2:02pm 97.79° F --° F 97.79° F 122.09° F 88.77° F 73.01% 89.47° F 1018.80mb 14.18mph S 30.18mph 0 0.000"
375144 6/21/2024 1:57pm 96.55° F --° F 96.55° F 127.62° F 88.65° F 78.37% 90.11° F 1018.92mb 10.41mph S 27.45mph 0 0.000"
375143 6/21/2024 1:51pm 96.44° F --° F 96.44° F 110.26° F 86.13° F 66.38% 85.76° F 1018.80mb 12.85mph S 27.45mph 0 0.000"
375142 6/21/2024 1:46pm 97.75° F --° F 97.75° F 106.58° F 86.15° F 61.28% 84.97° F 1018.90mb 15.42mph S 23.33mph 0 0.000"
375141 6/21/2024 1:41pm 98.64° F --° F 98.64° F 115.48° F 87.51° F 63.63% 86.75° F 1018.97mb 12.55mph S 23.33mph 0 0.000"
375140 6/21/2024 1:36pm 98.20° F --° F 98.20° F 126.50° F 88.51° F 69.91% 88.74° F 1018.92mb 7.93mph S 14.41mph 0 0.000"
375139 6/21/2024 1:31pm 97.90° F --° F 97.90° F 131.17° F 89.61° F 76.66% 90.84° F 1019.03mb 10.76mph S 19.88mph 0 0.000"
375138 6/21/2024 1:26pm 97.41° F --° F 97.41° F 131.75° F 89.62° F 79.23% 91.22° F 1019.15mb 11.40mph S 21.26mph 0 0.000"
375137 6/21/2024 1:21pm 96.69° F --° F 96.69° F 125.35° F 88.49° F 76.80% 89.72° F 1019.13mb 11.22mph S 19.88mph 0 0.000"
375136 6/21/2024 1:16pm 95.67° F --° F 95.67° F 138.14° F 89.48° F 88.02% 92.29° F 1019.32mb 8.69mph S 17.84mph 0 0.000"
375135 6/21/2024 1:11pm 96.37° F --° F 96.37° F 130.86° F 88.97° F 81.13% 90.84° F 1019.06mb 10.00mph S 27.45mph 0 0.000"
375134 6/21/2024 1:06pm 97.27° F --° F 97.27° F 128.03° F 89.15° F 77.45% 90.50° F 1019.17mb 11.98mph S 18.53mph 0 0.000"
375133 6/21/2024 1:01pm 96.94° F --° F 96.94° F 127.55° F 89.30° F 79.95% 91.01° F 1019.15mb 14.14mph S 23.33mph 0 0.000"
375132 6/21/2024 12:55pm 96.12° F --° F 96.12° F 152.99° F 91.35° F 97.25% 95.37° F 1019.29mb 10.14mph S 18.53mph 0 0.000"
375131 6/21/2024 12:50pm 94.96° F --° F 94.96° F 135.53° F 89.61° F 93.31% 93.12° F 1019.53mb 14.41mph S 24.00mph 0 0.000"
375130 6/21/2024 12:45pm 94.10° F --° F 94.10° F 134.70° F 89.23° F 96.42% 93.14° F 1019.45mb 14.62mph S 26.76mph 0 0.000"
375129 6/21/2024 12:40pm 94.86° F --° F 94.86° F 132.46° F 89.27° F 91.85% 92.61° F 1019.47mb 14.85mph S 28.80mph 0 0.000"
375128 6/21/2024 12:35pm 96.62° F --° F 96.62° F 135.30° F 89.36° F 81.97% 91.35° F 1019.62mb 8.05mph S 21.26mph 0 0.000"
375127 6/21/2024 12:30pm 96.66° F --° F 96.66° F 123.87° F 88.60° F 77.63% 89.97° F 1019.42mb 13.47mph S 24.69mph 0 0.000"
375126 6/21/2024 12:25pm 96.58° F --° F 96.58° F 128.91° F 89.03° F 80.25% 90.76° F 1019.64mb 11.65mph S 23.33mph 0 0.000"
375125 6/21/2024 12:20pm 96.21° F --° F 96.21° F 131.12° F 89.20° F 83.35% 91.39° F 1019.59mb 11.82mph S 22.64mph 0 0.000"
375124 6/21/2024 12:15pm 95.52° F --° F 95.52° F 139.00° F 90.00° F 92.18% 93.36° F 1019.65mb 12.64mph S 26.07mph 0 0.000"
375123 6/21/2024 12:10pm 95.85° F --° F 95.85° F 131.48° F 88.92° F 83.72% 91.15° F 1019.60mb 10.28mph S 20.57mph 0 0.000"
375122 6/21/2024 12:04pm 97.05° F --° F 97.05° F 142.74° F 90.50° F 86.02% 93.03° F 1019.59mb 8.57mph S 24.00mph 0 0.000"
375121 6/21/2024 11:59am 96.62° F --° F 96.62° F 138.78° F 89.98° F 85.53% 92.46° F 1019.61mb 9.47mph S 19.22mph 0 0.000"
375120 6/21/2024 11:54am 95.88° F --° F 95.88° F 135.72° F 89.56° F 87.29% 92.27° F 1019.61mb 11.03mph S 26.07mph 0 0.000"
375119 6/21/2024 11:49am 94.57° F --° F 94.57° F 135.67° F 89.37° F 94.19% 92.98° F 1019.57mb 13.36mph S 22.64mph 0 0.000"
375118 6/21/2024 11:44am 94.14° F --° F 94.14° F 135.65° F 89.05° F 95.09% 92.81° F 1019.58mb 12.25mph S 26.07mph 0 0.000"
375117 6/21/2024 11:39am 94.95° F --° F 94.95° F 128.15° F 88.58° F 86.82% 91.22° F 1019.62mb 13.01mph S 23.33mph 0 0.000"
375116 6/21/2024 11:34am 95.79° F --° F 95.79° F 139.23° F 89.97° F 90.27% 93.07° F 1019.67mb 11.26mph S 19.88mph 0 0.000"
375115 6/21/2024 11:29am 95.36° F --° F 95.36° F 133.98° F 89.33° F 89.02% 92.28° F 1019.72mb 12.32mph S 24.69mph 0 0.000"
375114 6/21/2024 11:24am 94.98° F --° F 94.98° F 137.95° F 89.60° F 93.15% 93.10° F 1019.71mb 12.05mph S 22.64mph 0 0.000"
375113 6/21/2024 11:19am 94.41° F --° F 94.41° F 147.24° F 89.67° F 97.45% 93.72° F 1019.71mb 5.98mph S 15.77mph 0 0.000"